• MPC Preparation (Info)

  • MPEC 2014-F76 : 2014 FX43

    The following Minor Planet Electronic Circular may be linked-to from your own Web pages, but must not otherwise be redistributed electronically.

    A form allowing access to any MPEC is at the bottom of this page.


    Read MPEC 2014-F75 Read MPEC 2014-F77


    M.P.E.C. 2014-F76                                Issued 2014 Mar. 31, 09:40 UT
    
         The Minor Planet Electronic Circulars contain information on unusual
             minor planets and routine data on comets.  They are published
       on behalf of Commission 20 of the International Astronomical Union by the
              Minor Planet Center, Smithsonian Astrophysical Observatory,
                              Cambridge, MA 02138, U.S.A.
    
                 Prepared using the Tamkin Foundation Computer Network
    
                                  MPC@CFA.HARVARD.EDU
                URL https://www.minorplanetcenter.net/    ISSN 1523-6714
    
                                       2014 FX43
    
    Observations:
         K14F43X* C2014 03 27.41487 13 37 54.76 +20 28 20.9          20.9 VqEF076G96
         K14F43X  C2014 03 27.41995 13 37 54.68 +20 28 21.6          21.1 VqEF076G96
         K14F43X  C2014 03 27.42503 13 37 54.57 +20 28 21.4          20.8 VqEF076G96
         K14F43X  C2014 03 27.43012 13 37 54.49 +20 28 22.5          20.8 VqEF076G96
         K14F43X  C2014 03 27.48091 13 37 53.40 +20 28 26.9          21.1 VqEF076G96
         K14F43X  C2014 03 27.48353 13 37 53.30 +20 28 27.3          20.9 VqEF076G96
         K14F43X  C2014 03 27.48614 13 37 53.27 +20 28 27.2          20.5 VqEF076G96
         K14F43X  C2014 03 27.48875 13 37 53.21 +20 28 27.7          20.8 VqEF076G96
         K14F43X  C2014 03 28.29814 13 37 36.36 +20 29 38.5          21.6 RoEF076926
         K14F43X  C2014 03 28.32115 13 37 35.85 +20 29 40.4          22.2 RoEF076926
         K14F43X  C2014 03 28.34433 13 37 35.39 +20 29 42.3          22.0 RoEF076926
         K14F43X  C2014 03 28.44190 13 37 33.24 +20 29 50.5                qEF076G96
         K14F43X  C2014 03 28.44769 13 37 33.14 +20 29 50.7                qEF076G96
         K14F43X  C2014 03 28.45058 13 37 33.06 +20 29 51.2                qEF076G96
         K14F43X  C2014 03 29.43315 13 37 12.24 +20 31 13.9          22.2 VqEF076G96
         K14F43X  C2014 03 29.43794 13 37 12.19 +20 31 13.7          21.1 VqEF076G96
         K14F43X  C2014 03 29.44274 13 37 12.07 +20 31 14.3          21.4 VqEF076G96
         K14F43X  C2014 03 29.44754 13 37 11.95 +20 31 14.7          21.2 VqEF076G96
         K14F43X  C2014 03 30.33724 13 36 53.02 +20 32 26.5          21.1 VqEF076G96
         K14F43X  C2014 03 30.34260 13 36 52.92 +20 32 26.9          20.9 VqEF076G96
         K14F43X  C2014 03 30.34798 13 36 52.80 +20 32 27.3          21.1 VqEF076G96
         K14F43X  C2014 03 30.35335 13 36 52.69 +20 32 27.9          21.0 VqEF076G96
         K14F43X  C2014 03 30.37413613 36 52.21 +20 32 29.3          21.2 VqEF076V37
         K14F43X  C2014 03 30.37749513 36 52.14 +20 32 29.3          21.9 VqEF076V37
         K14F43X  C2014 03 30.44265313 36 50.70 +20 32 34.2          21.7 VqEF076V37
         K14F43X  C2014 03 30.44601013 36 50.65 +20 32 34.6          21.8 VqEF076V37
         K14F43X  C2014 03 30.44935913 36 50.57 +20 32 35.1          22.1 VqEF076V37
    
    Observer details:
    926 Tenagra II Observatory.  Observers M. Schwartz, P. R. Holvorcem.  0.81-m
        f/7 Ritchey-Chretien + CCD.
    G96 Mt. Lemmon Survey.  Observers A. R. Gibbs, J. A. Johnson.  Measurers
        E. J. Christensen, A. R. Gibbs, A. D. Grauer, R. E. Hill, J. A. Johnson,
        R. A. Kowalski, S. M. Larson, F. C. Shelly.  1.5-m reflector + CCD.
    V37 McDonald Observatory-LCOGT ELP.  Observers E. J. Christensen, S. M. Larson,
        T. Lister.  Measurer T. Lister.  1.0-m f/8 Ritchey-Chretien + CCD.
    
    Orbital elements:
    2014 FX43
    Epoch 2014 Mar. 24.0 TT = JDT 2456740.5                 MPC
    M   8.44668              (2000.0)            P               Q
    n   0.01255884     Peri.   80.24708     -0.69821878     -0.54838717
    a  18.3303076      Node    65.02749     +0.27078709     -0.79735968
    e   0.6262160      Incl.   30.50640     +0.66269517     -0.25197033
    P  78.5            H   12.4           G   0.15
    From 27 observations 2014 Mar. 27-30.  E-assumed.
    
    Ephemeris:
    2014 FX43                a,e,i = 18.33, 0.63, 31                 q = 6.8516
    Date    TT    R. A. (2000) Decl.     Delta      r     Elong.  Phase     V
    2014 03 01    13 45 16.8 +19 33 43   6.8819  7.6167   135.2     5.3    21.4
    ...
    2014 03 16    13 41 35.9 +20 07 58   6.8080  7.6495   145.6     4.2    21.4
    ...
    2014 03 24    13 39 04.7 +20 22 57   6.7915  7.6673   149.5     3.8    21.3
    ...
    2014 03 30    13 37 00.3 +20 32 00   6.7901  7.6807   151.2     3.6    21.3
    2014 03 31    13 36 38.8 +20 33 18   6.7909  7.6829   151.4     3.6    21.3
    2014 04 01    13 36 17.2 +20 34 32   6.7919  7.6852   151.6     3.6    21.3
    ...
    2014 04 07    13 34 04.8 +20 40 32   6.8036  7.6987   151.6     3.5    21.3
    ...
    2014 04 15    13 31 04.8 +20 44 29   6.8343  7.7168   149.7     3.8    21.4
    ...
    2014 04 30    13 25 38.0 +20 38 24   6.9369  7.7512   141.6     4.6    21.5
    
    A. U. Tomatic                (C) Copyright 2014 MPC           M.P.E.C. 2014-F76
    

    Read MPEC 2014-F75 Read MPEC 2014-F77


    MPEC number:

    Enter an MPEC number in one of the following forms:

    • 1997-B01 (the full form)
    • J97B01 (the packed version of the full form)
    • B01 (the abbreviated form)